Regional Weather Roundup
Issued by NWS Wakefield, VA

Home | Current Version | Previous Version | Text Only | Print | Product List | Glossary Off
Versions: 1 2 3 4 5 6 7 8 9 10 11 12 13 14 15 16 17 18 19 20 21 22 23 24 25 26 27 28 29 30 31 32 33 34 35 36 37 38 39 40 41 42 43 44 45 46 47 48 49 50

000
ASUS41 KAKQ 270214
RWRAKQ

REGIONAL WEATHER ROUNDUP
NATIONAL WEATHER SERVICE WAKEFIELD VA
1000 PM EDT THU MAR 26 2015

Note: "fair" indicates few or no clouds below 12,000 feet with no
significant weather and/or obstructions to visibility. * = Denotes
station may not report precipitation (e.g., rain,snow,etc.),
thunder or fog.

VAZ042-051-052>054-056-270300-
NORTHERN VIRGINIA

CITY           SKY/WX    TMP DP  RH WIND       PRES   REMARKS
WASH NATIONAL  TSTM      63  52  67 NW20G29   29.70R
DULLES         CLOUDY    55  47  74 N22       29.72R
FORT BELVOIR   LGT RAIN  61  55  82 NW13G20   29.71R
QUANTICO       CLOUDY    63  50  62 N20G32    29.68R
FREDERICKSBRG* LGT RAIN  70  55  59 W7        29.65R
STAFFORD*      HVY RAIN  62  55  77 N17G28    29.72R
WARRENTON      LGT RAIN  58  58  99 N12G17    29.70R
CULPEPER*      LGT RAIN  61  57  88 N6        29.70R
MANASSAS*      NOT AVBL
LEESBURG*      CLOUDY    54  46  76 N15G22    29.75R
WINCHESTER     LGT RAIN  52  37  58 NW9G16    29.77R
FRONT ROYAL*   CLOUDY    52  45  76 N10G18    29.73R
LURAY*         CLOUDY    63  52  67 N14       29.71R
$$

VAZ048-049-060>072-079>083-270300-
CENTRAL AND SOUTH CENTRAL VIRGINIA

CITY           SKY/WX    TMP DP  RH WIND       PRES   REMARKS
RICHMOND       CLOUDY    68  55  63 SW10      29.68R
CHESTERFIELD*  FAIR      68  48  49 SW7       29.70R
PETERSBURG*    CLOUDY    69  55  60 SW6       29.69S
HANOVER        CLOUDY    69  54  58 S10       29.68R
TAPPAHANNOCK*  CLOUDY    67  54  62 S5        29.67R
QUINTON*       FAIR      66  57  72 S6        29.68R
CHARLOTTSVILLE CLOUDY    58  56  93 S5        29.67R
GORDONSVILLE*  CLOUDY    61  55  79 CALM      29.67S
ORANGE*        CLOUDY    64  55  72 W5        29.69S
LOUISA*        DRIZZLE   64  57  77 NW6       29.67R
BUMPASS*       CLOUDY    67  54  62 CALM      29.66R
FARMVILLE*     CLOUDY    68  55  62 SW7       29.66S
CREWE*         FAIR      67  54  63 MISG      29.68R
FORT PICKETT*  FAIR      67  55  67 S16G22    29.69S
CHASE CITY*    FAIR      69  58  68 S3        29.69F
CLARKSVILLE*   FAIR      66  54  63 S5        29.69F
SOUTH HILL*    CLOUDY    64  54  70 S5        29.76S
LAWRENCEVILLE* FAIR      64  56  77 CALM      29.71R
EMPORIA*       CLOUDY    63  55  77 CALM      29.73R
$$

VAZ088>098-270300-
SOUTHEAST VIRGINIA

CITY           SKY/WX    TMP DP  RH WIND       PRES   REMARKS
NORFOLK        CLOUDY    65  58  78 SW14      29.71S
VIRGINIA BEACH CLOUDY    70  58  65 S12       29.71S
NORFOLK NAVAL  CLOUDY    69  58  67 S9        29.72S
WEST POINT*    CLOUDY    69  56  64 S6        29.69R
SALUDA*        FAIR      65  60  83 SW8       29.68R
NEWPORT NEWS   CLOUDY    68  58  70 SW13      29.70S
LANGLEY AFB    CLOUDY    65  59  80 SW12      29.69S
FORT EUSTIS    CLOUDY    64  63  95 SW9       29.68S
WILLIAMSBURG*  CLOUDY    64  61  88 CALM      29.71R
HR EXEC AP*    FAIR      66  57  72 SW10G16   29.73R
FRANKLIN*      CLOUDY    65  56  75 S7        29.72R
WAKEFIELD      CLOUDY    66  56  70 S7        29.70S
$$

VAZ020-022-025-037-045-270300-
WEST CENTRAL AND SOUTHWEST VIRGINIA

CITY           SKY/WX    TMP DP  RH WIND       PRES   REMARKS
STAUNTON*      CLOUDY    57  53  87 S5        29.72R
WAYNESBORO*    MOCLDY    56  53  88 SW3       29.70S
HOT SPRINGS VA FOG       47  47 100 W14G20    29.74R VSB 1/4
LYNCHBURG      CLOUDY    64  54  69 S5        29.69R
DANVILLE       CLOUDY    67  54  63 S7        29.69F
SOUTH BOSTON*  FAIR      66  54  63 MISG      29.69S
MARTINSVILLE   CLOUDY    66  52  59 SW5       29.71R
ROANOKE        LGT RAIN  57  53  86 N3        29.74R
BLACKSBURG     LGT RAIN  53  50  89 NW6       29.78R
DUBLIN*        CLOUDY    55  50  82 N5        29.77R
MARION*        CLOUDY    52  45  76 NW9G17    29.81R
HILLSVILLE*    LGT RAIN  55  54  95 NW9       29.76R
RICHLANDS*     RAIN      44  42  92 NW8G18    29.84R
WISE*          LGT RAIN  43  43 100 N10G18    29.86S
ABINGDON*      CLOUDY    51  46  81 N13G22    29.80R
$$

MDZ021>025-VAZ099-100-270300-
SOUTHERN MARYLAND AND THE DELMARVA PENINSULA

CITY           SKY/WX    TMP DP  RH WIND       PRES   REMARKS
PATUXENT RIVER CLOUDY    64  58  80 S8        29.65R
BAY BRIDGE APT   N/A     54  52  94 N7        29.68R
LEONARDTOWN    CLOUDY    63  55  77 S3        29.68R
DOVER          CLOUDY    63  63 100 W16       29.62R
GEORGETOWN     CLOUDY    62  59  90 SW12      29.65R
EASTON         CLOUDY    62  62 100 NW9       29.72R
CAMBRIDGE      CLOUDY    59  55  88 S5        29.66R
SALISBURY      CLOUDY    61  59  93 S12       29.66R
OCEAN CITY     CLOUDY    54  53  97 SW12G24   29.68R
WALLOPS ISLAND CLOUDY    50  50 100 SW12      29.69R FOG
ACCOMACK*      CLOUDY    59  55  88 S9        29.69R
$$

NCZ012>017-030>032-270300-
NORTH CENTRAL AND EASTERN NORTH CAROLINA

CITY           SKY/WX    TMP DP  RH WIND       PRES   REMARKS
ROANOKE RAPIDS FAIR      64  55  72 S8        29.71S
RALEIGH        CLOUDY    69  55  60 SW13      29.72F
ELIZABETH CITY CLOUDY    66  56  70 S13       29.75S
AHOSKIE*       CLOUDY    66  57  71 S7        29.73S
EDENTON*       CLOUDY    65  58  79 S13       29.76S
CURRITUCK*     CLOUDY    67  54  63 S8        29.75S
KILL DEVIL HLS CLOUDY    62  58  87 SW9G17    29.78S
MANTEO         CLOUDY    61  58  90 SW21      29.79F
CAPE HATTERAS  CLOUDY    65  59  81 SW16      29.84R
TARBORO*       FAIR      68  58  69 S9        29.75R
GOLDSBORO      PTCLDY    68  67  98 S10       29.74F
WASHINGTON     CLOUDY    67  58  73 S10G16    29.78S
GREENVILLE     CLOUDY    68  59  73 S10G17    29.79S
NEW BERN       CLOUDY    66  56  70 S10       29.81S
WILMINGTON     PTCLDY    64  56  75 S13       29.82F
$$

VAZ048-270300-
ELSEWHERE

CITY           SKY/WX    TMP DP  RH WIND       PRES   REMARKS
HARRISBURG PA  LGT RAIN  47  40  76 NW14      29.74R
BALTIMORE      CLOUDY    59  54  83 NW7       29.68R
ANNAPOLIS      LGT RAIN  57  52  83 NW7       29.67R
ANDREWS AFB    CLOUDY    59  54  82 NW17      29.68R
PHILADELPHIA   CLOUDY    56  52  86 NW12      29.67S
HENDERSON NC   CLOUDY    65  52  63 S6        29.71F
GREENSBORO     CLOUDY    66  54  65 S10       29.70F
ROCKY MOUNT    CLOUDY    68  58  70 S9        29.74S
$$

VAZ100-270300-
MARINE

STATION/POSITION TIME  TEMP    WIND        PRES    WAVE   SWELL
                       AIR SEA DIR/SP/G            HT/PER HT/PER
                 (UTC) (F)     (DEG/KT/KT) (MB)    (FT/S) (FT/S)
BRANDYWINE LGT   0100   48 40  190/ 15/ 17 1003.1R
CAPE MAY NJ      0100   46 43  160/ 12/ 15 1002.9R
LEWES DE         0100   60 41  200/  5/ 10 1003.1R
15NM E FENWICK I 0150   45 40              1004.3R   7/ 8
OCEAN-CITY-INLET 0100   49 43  220/ 18/ 22 1004.1R
WACHAPREAGUE VA  0100   53 53  230/  9/ 12 1005.2S
THOMAS POINT MD  0200                        N/A
COVE POINT MD    0100   65     210/ 15/ 17 1003.0R
SOLOMONS ISLAND  0100      43                N/A
BISHOPS HEAD MD  0112          200/ 15/ 18   N/A
PINEY POINT MD   0106          160/  5/  5   N/A
CAMBRIDGE MD     0100   60 42  180/  8/ 13 1003.0R
LEWISETTA VA     0100   64 46              1003.3R
RAPPAHANNOCK LGT 0100          180/ 20/ 21 1005.1F
STINGRAY PT      0200   55 44  220/ 10/ 10   N/A     1/ 3
YORK RVR RNG VA  0100   56     210/ 12/ 15 1004.7R
YORKTOWN VA      0100   65 48  200/ 10/ 14 1005.0R
DOMINION TERM VA 0100   60     220/ 11/ 14 1005.6S
KIPTOPEKE VA     0100      50  170/ 10/ 11   N/A
CHES BAY BRIDGE  0100   65 47  180/ 15/ 16 1005.5R
CAPE HENRY VA    0100   67     190/  9/ 12 1004.9R
CHESAPEAKE LGHT  0100   53     190/ 26/ 27 1006.4R
WILLOUBY STN VA  0100   66     200/ 12/ 14 1006.3R
S CRANEY ISL VA  0100          210/  9/ 14 1005.7R
CAPE HENRY BUOY  0128      44                N/A     6/ 9   2/11
1ST LANDING BUOY 0200   60     210/ 12/ 16 1005.8S   2/ 5
OFFSHORE WE BUOY 0111      41                N/A     7/ 9   5/ 9
64NM E OF VA BCH 0150   57 51  200/ 21/ 23 1007.5F  10/ 9   8/ 9
DUCK PIER NC     0100   64 41  190/ 15/ 19 1006.9R
44056 DUCK FRF   0111      42                N/A     4/ 9   2/11
OREGON INLET NC  0100   61 59  190/ 20/ 24 1008.7R
HATTERAS NC      0100   66 59  190/  7/ 14 1010.4F
CAPE LOOKOUT NC  0200   64     200/ 11/ 13 1010.5R
$$



USA.gov is the U.S. government's official web portal to all federal, state and local government web resources and services.